CAPE
7 18 8 17 5 16 12 22 27 43 48 56 38 20 22 27 3 0 0 0 0 0 5 8 6 9 28 57 7 1 3 3 2
10 7 5 19 16 29 25 10 12 21 42 41 37 29 28 23 1 0 0 0 0 0 4 6 19 13 5 52 82 4 4 2 1
3 6 9 11 30 24 33 26 30 20 19 42 50 16 13 2 0 0 0 0 0 0 0 2 4 22 6 15 60 47 4 7 6
0 4 6 7 8 11 19 33 23 24 25 17 27 12 13 0 0 0 0 0 0 0 0 2 4 4 17 10 48 99 7 3 163
0 1 4 8 6 12 10 14 21 15 23 6 3 5 1 0 0 0 0 0 4 2 1 2 3 3 0 16 23 94 71 2 110
0 0 3 4 3 9 6 10 12 18 0 0 0 6 0 0 0 0 0 0 7 17 8 5 2 0 0 11 26 185 145 83 133
0 0 0 0 0 3 5 8 10 2 0 0 0 0 0 0 0 0 0 0 2 8 14 6 1 0 0 7 26 93 263 216 142
0 0 0 0 0 0 0 0 0 0 0 0 0 0 0 0 0 0 0 0 0 6 11 9 0 0 0 14 19 48 93 300 240
0 0 0 0 0 0 0 0 0 0 1 0 0 0 0 0 0 0 0 0 0 9 10 5 1 0 2 15 1 3 14 110 124
0 0 0 0 0 0 0 0 0 2 1 1 6 4 0 0 0 0 0 0 0 4 7 5 2 0 0 18 0 0 24 33 87
0 0 0 0 0 0 0 0 0 1 1 0 0 7 10 0 0 0 0 0 0 0 1 4 1 3 1 41 0 0 46 42 99
0 0 0 0 0 0 0 0 0 0 0 1 0 0 4 7 0 0 0 0 0 0 0 0 0 0 19 41 0 2 20 58 73
0 0 0 0 0 0 0 0 6 4 0 0 0 4 6 10 0 0 0 0 0 0 0 0 0 0 72 53 54 27 18 0 6
0 0 0 0 0 0 0 1 8 1 0 0 1 1 1 7 1 0 0 0 0 0 0 0 0 0 68 84 114 48 0 0 0
0 0 0 0 0 0 1 10 0 0 0 0 1 0 0 0 0 0 0 0 0 0 0 0 0 0 56 96 73 77 5 0 0
0 0 0 2 0 0 1 1 0 0 0 1 2 0 0 0 0 0 0 0 0 0 0 0 0 0 23 55 33 99 0 0 0
0 0 5 2 1 0 0 0 0 1 0 3 2 1 0 0 0 1 0 0 0 0 0 0 0 0 0 17 43 1 0 13 8
0 0 7 8 4 0 1 0 1 1 2 4 2 0 1 1 0 0 0 0 0 0 0 0 0 1 4 24 1 0 0 0 0
0 0 0 0 1 3 2 6 3 1 2 1 4 3 2 1 0 0 0 0 0 0 0 0 0 0 12 24 14 1 0 0 0
0 0 0 0 0 0 1 5 10 4 1 3 3 2 4 1 2 0 0 0 0 0 0 0 0 0 0 0 6 3 0 0 0
CIN
-0 -0 -1 -1 -0 -1 -3 -0 -0 -0 -0 -1 -0 -0 -1 -0 -4 0 0 0 0 -0 0 -0 -1 0 -0 0 0 -0 0 -0 -0
-1 -0 -1 -1 -1 -0 -1 -1 -1 -0 -0 -0 -0 -0 -0 -1 -1 0 0 0 0 0 -0 -0 0 -0 0 -0 0 -0 -0 0 -0
-0 -1 -1 -0 -0 -1 -0 -0 -1 -1 -0 -0 -0 -0 -0 -0 0 0 0 0 0 0 -0 -0 -0 -0 -0 -0 -0 -0 -0 -0 -0
0 -0 -0 -1 -1 -0 -1 -0 -1 -1 -1 -0 -1 -0 -0 -1 0 0 0 0 0 0 -0 -1 -0 -0 -0 0 -0 -0 0 -0 -0
0 -0 -0 -1 -0 -1 -1 -1 -0 -0 -1 -0 -3 -0 -0 0 0 0 0 0 -4 -1 -1 -0 -0 -0 -0 -0 -0 0 0 0 -0
0 -0 -0 -0 -0 -0 -0 -0 -0 -1 -1 0 -0 -0 0 0 0 0 0 0 -3 -0 -0 -1 -1 0 0 -0 0 0 0 -2 -3
0 0 -0 0 0 -0 -0 -0 -0 -0 0 0 0 0 0 0 0 0 0 0 -14 -0 -0 -1 -0 0 0 -0 -0 0 0 0 -0
0 0 0 0 0 0 0 0 0 0 0 0 0 0 0 0 0 0 0 0 -1 -1 -1 -1 -0 0 0 -1 -0 0 0 0 0
0 0 0 0 0 0 0 0 0 -0 -3 0 0 0 0 0 0 0 0 0 0 -0 -0 -1 -1 -0 -0 -1 -0 0 -19 -18 -13
0 0 0 0 0 0 0 0 0 -3 -0 -5 -8 -10 -1 0 0 0 0 0 0 -0 -1 -0 -0 -1 -0 -3 0 0 -50 -13 -7
0 0 0 0 0 0 0 0 0 -1 -3 0 -0 -13 -9 -6 0 0 0 0 0 0 -0 -0 -1 -1 -0 -0 0 0 -29 -36 -11
0 0 0 0 0 0 0 0 0 0 0 0 0 0 -24 -13 0 0 0 0 0 0 0 0 0 0 -1 -0 0 -41 -43 -32 -6
0 0 0 0 0 0 0 0 -8 -5 0 0 0 -33 -27 -14 0 0 0 0 0 0 0 0 0 0 -3 -0 -1 -1 -60 0 -4
0 0 0 0 0 0 0 -5 -4 -6 0 0 -0 -18 -32 -25 -11 0 0 0 0 0 0 0 0 0 -5 -1 -5 -0 0 0 0
0 0 0 0 0 -5 -9 -0 -0 -7 0 0 -0 0 -35 0 0 0 0 0 0 0 0 0 0 0 -16 -9 -2 -1 0 0 0
0 0 0 -4 0 -4 -4 -2 -2 0 0 0 -1 0 0 0 0 0 0 0 0 0 0 0 0 0 -43 -17 -14 -2 0 0 0
0 0 -3 -8 -5 -8 0 0 0 0 0 0 -1 -0 0 0 0 -1 0 0 0 0 0 0 0 0 0 -32 -28 -9 -3 -2 -2
0 -3 -8 -6 -8 -5 0 0 0 -1 -1 -0 -0 0 -0 -0 -0 0 0 0 0 0 0 0 -27 -65 -37 -32 -40 0 0 0 0
0 0 0 0 -1 -6 -1 -4 -4 -1 -0 -1 -0 -0 0 -3 0 0 0 0 0 0 0 0 0 -18 -103 -65 -44 -11 0 0 0
0 0 0 0 0 0 -13 -6 -1 0 0 -0 0 0 -0 0 0 0 0 0 0 0 0 0 0 0 0 -15 -60 -9 0 0 0
Wind_Speed
35 36 36 36 36 37 36 37 38 37 37 38 39 41 40 39 38 38 36 35 35 35 33 32 32 32 32 33 29 28 26 24 23
35 36 36 35 37 37 37 37 38 39 37 37 37 37 38 38 40 38 38 36 38 37 36 35 34 34 34 34 30 28 27 26 23
36 35 35 35 37 37 37 38 38 38 39 39 38 38 39 39 39 38 38 39 40 39 39 38 37 36 36 35 34 29 28 27 25
35 35 35 37 38 38 38 38 38 39 38 40 40 39 41 40 39 40 38 39 41 42 42 41 39 39 37 36 35 32 28 29 26
36 36 37 38 39 39 39 38 39 39 39 39 41 42 42 39 41 40 39 41 42 43 44 43 42 41 40 38 36 34 30 28 26
36 37 39 40 40 40 40 40 40 40 40 40 40 40 39 40 40 40 41 42 43 44 45 46 45 44 43 40 37 36 32 29 28
37 38 39 40 40 40 40 40 40 41 39 39 40 39 39 39 40 40 42 43 43 45 46 47 48 46 44 42 39 37 36 32 29
37 38 38 39 39 38 39 38 40 40 41 40 40 40 40 39 40 41 43 43 43 45 46 47 48 48 46 44 40 37 39 38 29
39 39 40 39 39 39 39 39 40 41 41 41 42 42 41 40 40 41 42 42 42 43 45 45 46 46 46 44 41 39 35 38 26
40 39 39 39 39 39 41 40 42 41 41 42 43 42 43 42 41 41 42 42 41 42 43 44 44 47 47 46 41 41 36 34 35
39 39 37 37 38 38 40 41 42 41 42 42 42 43 43 43 42 41 41 43 41 41 41 43 44 45 47 45 41 40 37 34 33
36 36 36 37 36 37 38 39 39 41 41 41 41 43 43 42 43 42 41 41 42 42 40 41 43 43 46 42 42 40 38 35 37
34 35 35 33 35 35 35 38 39 39 40 41 40 41 40 41 42 42 42 42 41 41 40 39 39 40 39 38 37 36 32 30 30
34 34 31 31 31 30 29 30 35 39 39 38 39 39 40 41 40 41 43 42 41 39 39 38 37 38 36 39 36 31 32 32 27
33 30 29 26 25 27 25 24 28 31 35 37 39 37 38 35 37 38 40 40 40 37 37 36 35 35 35 35 33 32 30 33 35
32 27 30 28 25 25 24 25 24 26 31 35 35 34 33 28 29 33 35 36 36 35 34 34 33 32 31 30 32 31 28 29 29
28 27 30 32 29 25 28 24 22 21 25 30 35 31 29 24 29 29 29 29 32 31 30 30 31 30 27 26 23 22 20 23 24
27 26 29 30 27 25 23 23 20 18 19 21 25 27 27 31 24 26 24 22 23 24 25 25 27 26 24 25 24 24 25 23 25
28 26 25 30 30 29 26 22 21 17 13 17 25 21 24 25 24 24 22 19 19 20 21 21 22 23 23 21 23 25 28 29 28
27 26 27 27 28 27 29 28 22 19 20 17 14 17 23 22 22 22 20 17 15 16 17 17 17 20 22 22 22 24 26 28 28
Wind_Direction
331 327 323 322 319 317 315 310 305 305 303 297 291 288 286 286 284 280 280 278 278 278 278 278 277 276 276 272 270 270 271 272 273
332 329 326 323 319 317 316 313 309 302 304 302 299 293 291 289 285 280 277 276 274 274 275 276 277 276 275 274 267 267 269 269 270
332 331 329 325 321 318 316 313 310 305 301 299 300 295 291 290 286 282 278 274 272 272 272 273 274 275 273 276 268 265 266 266 267
333 332 330 325 321 317 315 314 311 307 304 300 298 296 293 290 285 282 279 276 272 269 270 270 271 272 273 273 271 264 264 264 262
334 332 329 326 322 318 314 313 311 309 305 304 297 295 292 291 285 282 280 275 272 269 267 268 268 269 269 270 272 264 262 262 261
338 333 329 326 322 319 316 312 310 308 307 303 300 297 295 289 286 283 279 278 272 270 267 265 266 266 265 266 270 265 262 261 259
339 337 333 330 326 322 318 315 311 309 307 304 302 299 296 291 286 283 280 278 274 269 268 265 263 262 262 263 266 266 259 259 258
341 339 337 334 330 326 321 317 313 309 306 303 300 297 294 292 288 283 280 278 275 270 268 265 262 259 260 260 261 265 260 257 254
343 341 337 334 332 327 324 319 315 309 306 302 299 296 294 291 288 285 280 278 276 272 268 266 261 258 256 258 256 260 265 260 253
346 344 342 338 335 330 324 320 315 310 306 302 298 295 291 289 287 284 281 277 275 273 269 264 262 257 256 255 254 255 259 261 254
350 348 346 342 338 333 328 321 316 312 307 303 298 295 292 288 285 284 281 276 273 273 271 265 262 259 255 251 252 254 254 257 256
352 350 346 343 342 338 333 327 322 316 312 305 301 297 291 288 283 280 279 276 272 270 272 268 263 258 258 248 249 252 252 255 255
355 353 351 351 347 344 339 334 327 321 314 309 305 300 293 289 283 279 277 275 271 269 268 269 265 257 252 249 249 250 247 249 257
359 357 358 358 358 356 353 348 339 325 318 314 310 303 297 289 284 280 276 272 267 266 267 266 263 257 251 250 247 249 244 244 252
5 7 6 8 8 6 5 360 352 342 329 320 313 309 300 295 286 283 278 271 264 262 265 264 262 256 252 250 250 247 247 247 249
12 16 11 14 15 13 11 10 6 360 346 328 324 315 305 301 299 291 282 269 260 259 263 261 259 256 254 250 254 246 250 248 251
21 19 11 14 19 22 18 19 19 10 2 342 325 321 314 311 308 298 289 271 259 258 262 261 257 254 253 248 247 243 256 248 251
26 24 16 12 19 22 24 23 23 22 20 14 348 329 316 310 313 300 292 281 263 260 261 263 256 253 251 250 246 245 253 259 256
31 28 26 14 12 18 24 28 30 30 27 34 13 3 335 316 306 308 295 288 272 264 261 264 257 253 250 251 250 251 254 259 262
34 33 31 27 16 18 19 25 34 35 44 49 51 40 357 330 308 304 301 288 287 275 264 265 262 256 253 254 257 257 257 261 265